North Myrtle Beach, SC

3:17 AM EST on January 20, 2017 (GMT -0500)
Grand Strand

Weather History for KCRE - January, 2013

Change the Weather History Date:

Monday, January 14, 2013

  Actual Average Record
Temperature  
Mean Temperature 63 °F 45 °F  
Max Temperature 72 °F 55 °F 76 °F (1950)
Min Temperature 54 °F 36 °F 21 °F (2011)
Degree Days  
Heating Degree Days 2 20  
Month to date heating degree days 157 270  
Since 1 July heating degree days 1018 1138  
Cooling Degree Days 0 0  
Month to date cooling degree days 2 0  
Year to date cooling degree days 2 0  
Growing Degree Days 12 (Base 50)    
Moisture  
Dew Point 59 °F    
Average Humidity 91    
Maximum Humidity 100    
Minimum Humidity 81    
Precipitation  
Precipitation 0.00 in 0.11 in 0.33 in (2005)
Month to date precipitation 0.08 1.58  
Year to date precipitation 0.08 1.58  
Sea Level Pressure  
Sea Level Pressure 30.16 in    
Wind  
Wind Speed 7 mph (SW)    
Max Wind Speed 14 mph    
Max Gust Speed 18 mph    
Visibility 5 miles    
Events Fog    
T = Trace of Precipitation, MM = Missing Value Source: NWS Daily Summary

Daily Weather History Graph

Daily Weather History Graph

Search for Another Location

Airport or City:

Trip Planner

Search our weather history database for the weather conditions in past years. The results will help you decide how hot, cold, wet, or windy it might be!

Date:

Astronomy

Jan. 14, 2013 Rise Set
Actual Time 7:19 AM EST 5:28 PM EST
Civil Twilight 6:52 AM EST 5:55 PM EST
Nautical Twilight 6:22 AM EST 6:26 PM EST
Astronomical Twilight 5:52 AM EST 6:56 PM EST
Moon 9:03 AM EST (1/14) 8:59 PM EST (1/14)
Length of Visible Light 11h 02m
Length of Day
10h 08m
Waxing Crescent, 11% of the Moon is Illuminated
Jan 14
Waxing Crescent
Jan 18
First Quarter
Jan 26
Full
Feb 3
Last Quarter
Feb 10
New

Hourly Weather History & Observations

Time (EST) Temp. Dew Point Humidity Pressure Visibility Wind Dir Wind Speed Gust Speed Precip Events Conditions
12:53 AM 59.0 °F 57.9 °F 96% 30.16 in 8.0 mi SSW 6.9 mph - N/A   Clear
1:13 AM 57.2 °F 57.2 °F 100% 30.16 in 3.0 mi SSW 4.6 mph - N/A   Scattered Clouds
1:17 AM 57.2 °F 57.2 °F 100% 30.16 in 2.5 mi SSW 4.6 mph - N/A   Mostly Cloudy
1:21 AM 57.2 °F 57.2 °F 100% 30.16 in 3.0 mi SSW 3.5 mph - N/A   Scattered Clouds
1:26 AM 57.2 °F 57.2 °F 100% 30.16 in 1.8 mi SW 3.5 mph - N/A   Scattered Clouds
1:31 AM 57.2 °F 55.4 °F 94% 30.16 in 0.8 mi SW 4.6 mph - N/A   Mist
1:53 AM 59.0 °F 57.9 °F 96% 30.17 in 0.2 mi WSW 8.1 mph - 0.01 in Fog Fog
2:15 AM 59.0 °F 57.2 °F 94% 30.17 in 0.8 mi SW 9.2 mph - N/A   Mist
2:31 AM 59.0 °F 57.2 °F 94% 30.17 in 1.2 mi WSW 6.9 mph - N/A   Overcast
2:46 AM 57.2 °F 57.2 °F 100% 30.16 in 2.5 mi SW 6.9 mph - N/A   Mostly Cloudy
2:53 AM 57.0 °F 57.0 °F 100% 30.17 in 1.8 mi SSW 4.6 mph - N/A   Mostly Cloudy
3:01 AM 59.0 °F 59.0 °F 100% 30.16 in 3.0 mi SSW 8.1 mph - N/A   Scattered Clouds
3:24 AM 57.2 °F 57.2 °F 100% 30.15 in 5.0 mi SSW 4.6 mph - N/A   Mostly Cloudy
3:35 AM 57.2 °F 55.4 °F 94% 30.15 in 1.5 mi Calm Calm - N/A   Overcast
3:44 AM 57.2 °F 55.4 °F 94% 30.15 in 0.5 mi WSW 3.5 mph - N/A Fog Fog
3:53 AM 57.0 °F 55.9 °F 96% 30.15 in 0.5 mi SW 3.5 mph - N/A Fog Fog
4:10 AM 59.0 °F 59.0 °F 100% 30.14 in 1.5 mi SSW 8.1 mph - N/A   Overcast
4:51 AM 57.2 °F 57.2 °F 100% 30.13 in 8.0 mi WSW 3.5 mph - N/A   Scattered Clouds
4:53 AM 57.9 °F 57.9 °F 100% 30.13 in 5.0 mi SW 3.5 mph - N/A   Partly Cloudy
4:58 AM 57.2 °F 57.2 °F 100% 30.13 in 1.8 mi WSW 3.5 mph - N/A   Partly Cloudy
5:08 AM 57.2 °F 57.2 °F 100% 30.13 in 3.0 mi Calm Calm - N/A   Clear
5:53 AM 57.9 °F 57.0 °F 97% 30.14 in 1.0 mi WSW 4.6 mph - N/A   Clear
6:06 AM 59.0 °F 57.2 °F 94% 30.14 in 9.0 mi SW 4.6 mph - N/A   Clear
6:50 AM 57.2 °F 57.2 °F 100% 30.16 in 1.5 mi Calm Calm - N/A   Partly Cloudy
6:53 AM 57.9 °F 57.0 °F 97% 30.16 in 10.0 mi Calm Calm - N/A   Clear
7:53 AM 55.0 °F 54.0 °F 96% 30.17 in 10.0 mi Calm Calm - N/A   Clear
8:53 AM 63.0 °F 62.1 °F 97% 30.20 in 8.0 mi Calm Calm - N/A   Clear
9:53 AM 66.0 °F 63.0 °F 90% 30.20 in 10.0 mi SW 8.1 mph - N/A   Clear
10:53 AM 70.0 °F 64.9 °F 84% 30.19 in 10.0 mi WSW 11.5 mph - N/A   Clear
11:49 AM 64.4 °F 60.8 °F 88% 30.17 in 1.0 mi South 8.1 mph - N/A   Mist
11:53 AM 64.0 °F 61.0 °F 90% 30.17 in 1.0 mi South 6.9 mph - N/A   Mist
12:06 PM 64.4 °F 60.8 °F 88% 30.16 in 3.0 mi South 5.8 mph - N/A   Mostly Cloudy
12:16 PM 66.2 °F 60.8 °F 83% 30.16 in 7.0 mi SSW 9.2 mph - N/A   Scattered Clouds
12:53 PM 66.0 °F 61.0 °F 84% 30.15 in 7.0 mi South 6.9 mph - N/A   Clear
1:35 PM 66.2 °F 62.6 °F 88% 30.13 in 10.0 mi SSW 8.1 mph - N/A   Partly Cloudy
1:53 PM 66.0 °F 61.0 °F 84% 30.13 in 10.0 mi SSW 8.1 mph - N/A   Partly Cloudy
2:53 PM 66.9 °F 61.0 °F 81% 30.14 in 10.0 mi SSW 6.9 mph - N/A   Clear
3:53 PM 66.0 °F 60.1 °F 81% 30.15 in 10.0 mi SSW 10.4 mph - N/A   Clear
5:53 PM 62.1 °F 57.9 °F 86% 30.17 in 10.0 mi SSW 6.9 mph - N/A   Clear
6:53 PM 62.1 °F 57.9 °F 86% 30.17 in 10.0 mi SSW 9.2 mph - N/A   Clear
7:53 PM 62.1 °F 59.0 °F 90% 30.17 in 10.0 mi SW 10.4 mph - N/A   Clear
8:53 PM 60.1 °F 57.9 °F 93% 30.18 in 7.0 mi SW 10.4 mph - N/A   Clear
9:53 PM 62.1 °F 60.1 °F 93% 30.17 in 9.0 mi SW 8.1 mph - N/A   Clear
10:53 PM 61.0 °F 60.1 °F 97% 30.16 in 8.0 mi SW 6.9 mph - N/A   Clear
11:53 PM 61.0 °F 60.1 °F 97% 30.17 in 6.0 mi SW 8.1 mph - N/A   Clear